Find Starlink 33859

NORAD ID: 63640 Int'l Des: 2025-083 Owner: SPXS Country: US Constellation: starlink operational
LEOCIRCULAR

現在のビュー

3D地球を読み込み中...

About Starlink 33859

Starlink 33859 (NORAD 63640) is a starlink constellation satellite (v2 mini) launched Apr 25, 2025 by SPXS of US. It operates in LEO, CIRCULAR orbit with a mass of 575.00 kg.

次回通過

Passes for default location (London). Set your location on the main map for personalized predictions.

高度履歴

Loading altitude history...

軌道要素

1 63640U 25083G 26264.26829968 .00008195 00000-0 30695-3 0 9996
2 63640 43.0030 341.0697 0001372 267.1998 92.8696 15.27586268 79978
Epoch: Sep 21, 2026 • Age: 5 hours

現在のステータス

高度 486.0 km
遠地点 / 近地点 N/A
速度 7.63 km/s
衛星直下点 38.16°N, 134.96°W
打ち上げ日 Apr 25, 2025
運用期間 1.4 years
タイプ internet

技術仕様

分類 Payload
質量 575.00 kg
乾燥質量 530.00 kg
長さ 0.30 m
スパン 29.00 m
形状 ? Box + pan
製造者 SPXS
バスタイプ Starlink V2MO
フェーズステータス In Orbit
所有者/国 SPXS/US

Most Searched